Wind_Speed
35 35 36 36 35 34 34 33 32 31 29 26 24 22 21 20 19 19 17 18 17 16 15 14 15 14 15 15 16 16 16 15 15 15 15 15 16 16 17 17 17 18 19 19
36 37 37 36 36 35 35 35 34 33 31 27 26 24 23 22 21 22 20 20 19 18 17 17 17 17 17 18 19 18 16 16 16 16 16 17 18 18 19 19 19 20 20 20
38 38 38 39 37 36 36 35 34 34 32 30 28 26 24 23 22 22 22 21 21 21 20 19 19 19 20 20 21 21 20 19 18 19 19 20 20 19 20 20 20 21 21 22
38 38 40 38 37 37 37 36 35 34 32 31 29 28 27 25 24 23 22 22 22 22 22 22 21 21 22 22 21 22 21 21 21 21 21 21 21 22 23 23 23 24 24 24
39 39 39 39 38 37 37 36 35 35 34 33 31 29 28 27 27 25 24 24 23 23 23 24 24 24 24 23 23 23 23 23 23 24 24 23 24 25 25 26 26 27 27 27
39 39 40 38 38 38 38 37 35 34 34 34 33 32 30 29 28 28 27 26 25 25 24 24 25 26 26 26 26 26 26 27 27 27 27 26 27 27 28 29 29 30 28 29
39 39 39 38 37 38 38 37 35 35 34 33 33 32 31 30 30 29 29 28 28 27 26 27 27 27 28 28 28 29 29 29 29 29 28 29 29 30 30 31 31 31 30 31
39 40 38 37 36 37 38 37 35 35 35 35 35 35 34 33 33 32 31 31 31 31 30 30 30 30 30 30 31 31 31 31 31 31 31 32 33 33 34 34 33 32 32 32
39 39 38 38 37 37 38 38 37 36 36 36 36 36 36 36 35 34 33 32 33 34 34 33 33 33 32 32 32 33 32 32 33 34 34 34 35 35 35 35 35 35 34 33
39 38 38 38 37 37 38 38 38 37 37 37 37 38 38 37 37 36 35 35 35 36 36 35 35 34 33 34 34 34 34 34 35 36 36 37 37 37 36 36 36 35 35 34
37 36 36 36 37 37 38 39 39 39 39 40 40 39 38 39 39 39 39 38 38 38 38 37 37 36 36 36 36 36 36 36 36 37 38 38 38 37 36 37 37 35 35 35
35 35 35 35 35 36 37 37 38 39 40 40 41 40 40 40 41 41 41 40 40 39 39 39 39 38 39 38 37 37 37 37 38 38 37 38 38 38 37 37 37 37 37 37
34 35 34 34 35 36 37 38 38 39 40 41 40 41 41 41 41 41 41 41 41 41 41 41 40 39 39 38 38 38 39 39 39 38 37 37 37 37 37 37 37 38 38 37
34 35 35 35 35 36 37 37 37 37 39 40 40 41 41 41 41 41 41 41 42 42 41 40 40 40 39 38 39 39 38 38 38 38 38 38 38 38 38 38 38 39 38 38
33 34 35 35 35 36 37 36 36 36 37 38 39 40 40 40 40 40 40 41 41 41 40 39 38 37 38 38 38 38 38 37 38 39 38 38 38 39 39 39 38 39 39 39
31 32 34 34 34 34 35 36 36 37 37 37 38 39 39 39 38 39 39 39 39 38 37 37 37 36 36 37 38 37 36 36 37 38 39 38 37 38 39 39 39 39 39 39
29 29 30 31 31 32 33 34 34 35 36 36 37 37 37 38 38 38 38 37 36 35 34 35 35 36 36 37 37 36 35 35 35 36 36 36 36 37 38 39 39 39 39 39
27 27 28 29 29 31 33 34 33 33 34 35 35 35 35 36 36 36 36 35 35 34 34 34 35 35 36 35 35 35 35 35 34 34 35 35 35 36 37 38 38 38 38 38
23 24 26 28 29 30 32 32 32 32 32 33 33 33 32 32 32 33 33 33 33 33 34 34 35 34 34 33 32 32 33 34 34 34 34 34 34 35 35 36 36 37 37 37
19 20 21 23 25 26 26 27 28 28 29 29 30 30 30 30 30 31 31 31 32 33 33 32 32 31 31 31 31 30 31 32 33 33 34 35 34 34 34 35 36 36 36 37
18 19 20 21 20 21 22 22 23 24 25 25 26 27 28 29 30 30 30 30 30 30 30 28 28 28 28 28 29 30 30 31 32 32 32 32 33 33 34 34 34 35 36 36
15 15 16 16 16 16 17 18 20 21 21 22 23 23 24 25 26 27 27 27 27 27 26 25 25 25 25 27 28 28 30 30 31 31 32 32 32 33 34 35 35 35 35 35
13 12 12 13 13 14 15 15 15 17 18 19 20 21 21 21 22 23 24 24 25 25 24 24 24 25 25 26 27 28 28 29 30 31 32 33 33 34 34 35 35 35 34 33
12 11 10 10 10 11 12 13 13 14 15 15 17 17 18 19 19 20 21 22 21 22 23 24 24 25 26 26 27 27 28 29 30 32 32 32 32 33 33 34 33 33 32 31
9 9 9 9 9 10 10 11 11 12 13 13 13 14 16 16 17 17 18 18 18 19 20 21 22 24 24 25 26 27 27 28 28 29 29 30 31 31 32 32 32 32 31 31
7 6 7 8 9 8 8 9 10 11 11 12 12 12 13 14 15 15 16 16 16 17 18 19 20 21 22 23 23 24 25 26 27 28 28 28 29 29 29 29 30 30 30 30
7 7 7 7 8 8 8 8 8 8 9 10 10 11 11 13 13 14 15 15 16 16 17 18 19 20 21 22 22 23 23 24 25 26 26 27 27 27 28 28 28 28 28 28
Wind_Direction
237 236 236 237 238 240 242 244 247 251 254 256 258 258 257 256 256 255 252 251 257 259 258 261 265 266 269 265 265 268 269 271 274 278 282 285 287 288 291 294 296 294 297 301
237 236 237 239 239 240 242 244 247 250 252 255 257 258 255 254 256 254 253 251 255 258 259 260 264 267 270 269 267 267 267 269 268 273 277 282 283 286 290 294 295 296 297 299
237 237 239 240 240 242 244 246 249 250 252 253 253 257 255 253 252 252 253 255 258 261 260 259 262 263 265 265 267 267 265 265 268 272 278 282 281 285 287 289 291 294 297 299
239 239 241 243 242 242 244 246 248 250 251 252 253 254 255 254 253 256 258 258 257 257 259 258 259 261 262 262 267 268 268 268 271 275 278 282 283 285 286 285 287 290 294 296
240 241 243 244 244 244 245 247 249 249 249 250 251 252 253 254 254 255 257 260 262 261 262 260 260 262 264 267 270 273 273 273 273 274 276 279 285 287 286 286 288 290 292 294
241 242 244 245 245 246 247 247 247 248 249 249 249 250 253 253 253 255 257 259 262 262 260 260 262 264 266 270 271 272 273 273 274 276 278 280 283 284 284 285 286 288 290 293
242 244 244 244 245 246 246 247 248 248 248 248 249 250 252 253 254 255 256 260 262 263 262 263 265 266 269 272 272 273 273 271 272 274 278 281 283 285 285 284 284 284 288 290
242 243 243 244 245 246 247 247 248 249 248 248 249 251 252 254 255 256 257 259 262 263 263 264 266 267 269 272 274 275 273 271 272 273 277 280 283 284 284 284 284 286 286 288
242 243 244 246 246 245 246 247 248 248 248 249 249 251 253 255 256 256 257 259 261 263 264 265 267 268 269 271 273 274 275 275 276 278 279 280 282 282 281 282 284 287 287 288
242 245 246 247 246 245 245 246 247 247 248 249 251 251 251 254 256 257 258 259 261 263 263 265 267 268 269 269 271 273 275 276 278 279 279 280 282 281 281 283 284 285 287 288
243 244 245 246 246 245 245 245 246 247 249 251 252 252 253 254 256 258 259 261 262 263 264 264 265 267 268 270 272 273 275 277 278 278 278 279 279 280 281 282 283 284 286 288
241 243 246 246 246 245 245 245 247 248 249 252 253 253 254 255 257 259 260 261 262 263 263 264 265 267 269 270 272 274 276 277 277 277 278 279 279 279 281 282 282 283 285 286
242 242 244 245 246 247 246 246 247 249 251 252 254 255 255 256 257 258 261 261 262 262 263 264 264 265 268 269 271 273 275 275 276 276 277 278 279 279 281 281 282 283 284 285
244 244 245 246 247 248 248 249 249 251 252 253 255 255 256 256 256 258 259 261 262 263 264 264 265 266 267 269 271 272 273 274 275 275 276 276 278 279 280 280 282 283 284 285
245 246 248 248 248 249 250 250 251 252 253 252 253 254 255 256 256 257 259 261 262 263 263 264 266 266 268 270 272 271 271 271 273 273 274 275 277 278 279 280 281 281 282 283
246 247 247 248 249 249 248 250 252 253 252 252 253 255 256 257 258 258 260 262 263 264 264 265 265 265 267 269 271 271 270 271 272 272 272 273 275 277 278 279 280 280 280 281
246 248 248 247 246 246 246 249 253 253 251 252 254 256 256 256 258 258 259 261 262 263 264 264 264 265 266 268 269 270 271 270 271 272 272 274 276 278 279 280 280 280 280 280
246 248 248 245 244 246 247 251 253 254 253 253 254 254 255 256 257 256 258 259 261 261 262 263 264 264 265 266 267 268 269 270 271 273 274 275 277 278 279 280 281 281 281 281
248 248 246 245 246 247 248 250 252 253 254 254 254 253 252 254 254 255 258 260 260 261 263 265 266 265 265 265 266 267 269 269 271 274 276 276 277 279 280 281 282 283 284 283
251 250 247 248 249 249 250 251 251 251 251 252 252 252 253 254 254 256 257 258 259 262 264 265 265 265 266 267 267 268 270 272 273 276 277 278 277 278 280 282 282 283 283 284
251 250 247 249 249 252 253 252 250 249 251 251 251 254 255 256 256 256 257 258 259 261 264 266 266 265 266 267 268 270 272 273 274 276 278 279 279 279 281 282 283 284 285 285
254 255 249 247 251 252 252 254 253 251 252 254 254 254 255 256 257 257 257 257 259 261 263 266 267 265 266 269 271 272 273 274 276 277 278 278 279 280 281 282 283 284 286 286
258 260 253 253 255 256 257 259 257 253 253 255 255 255 255 256 257 259 260 261 261 262 264 266 266 266 268 271 272 273 275 276 278 279 280 280 280 281 283 284 283 285 287 286
263 259 255 258 262 261 261 262 260 258 256 257 255 255 256 256 258 261 263 264 263 264 265 266 267 268 270 272 274 276 278 279 280 281 281 281 282 283 285 287 286 285 285 285
256 253 256 262 264 264 267 266 262 260 259 259 257 257 258 259 262 264 265 265 267 267 268 269 269 269 272 276 278 281 282 283 284 283 282 282 283 284 285 286 288 289 288 287
247 253 258 260 262 265 268 269 268 266 264 261 260 260 261 262 260 260 264 267 270 271 271 272 274 277 279 280 283 285 286 287 287 286 286 286 287 288 290 291 291 293 293 292
250 253 257 264 267 266 267 268 272 271 265 263 264 265 266 266 265 267 268 271 274 274 276 277 278 280 282 284 286 288 289 290 291 291 292 291 291 291 292 292 292 293 292 292
Height
5831 5835 5838 5841 5845 5848 5851 5853 5855 5858 5861 5864 5867 5868 5870 5872 5873 5874 5875 5875 5876 5876 5877 5878 5879 5879 5879 5879 5880 5880 5880 5879 5879 5878 5878 5877 5876 5875 5874 5873 5872 5871 5870 5869
5822 5826 5830 5833 5837 5841 5843 5846 5848 5851 5855 5858 5860 5862 5864 5866 5867 5869 5870 5870 5871 5871 5872 5873 5874 5875 5875 5875 5875 5875 5875 5875 5874 5874 5873 5873 5872 5871 5870 5869 5868 5867 5865 5864
5814 5818 5821 5825 5830 5833 5836 5839 5842 5844 5849 5851 5853 5856 5858 5859 5861 5862 5864 5865 5865 5866 5867 5868 5868 5869 5870 5870 5870 5870 5870 5869 5869 5868 5868 5867 5867 5866 5865 5864 5863 5862 5860 5859
5805 5810 5812 5819 5822 5825 5828 5831 5834 5837 5841 5844 5847 5849 5851 5853 5854 5856 5857 5859 5860 5860 5862 5862 5863 5863 5864 5863 5863 5864 5864 5863 5862 5862 5861 5861 5861 5861 5860 5858 5857 5855 5854 5853
5797 5800 5804 5809 5813 5816 5819 5823 5827 5830 5833 5836 5839 5841 5844 5846 5847 5849 5851 5852 5853 5854 5855 5856 5856 5857 5857 5858 5858 5858 5858 5858 5857 5856 5856 5855 5855 5854 5852 5851 5850 5848 5847 5845
5788 5791 5795 5802 5804 5807 5812 5814 5819 5821 5825 5828 5830 5834 5837 5838 5840 5841 5843 5845 5846 5847 5848 5849 5849 5850 5850 5851 5851 5851 5851 5851 5851 5850 5850 5849 5847 5845 5844 5843 5842 5841 5839 5838
5778 5782 5786 5792 5795 5798 5804 5807 5810 5813 5816 5819 5822 5825 5828 5830 5832 5834 5835 5837 5838 5839 5840 5841 5841 5842 5842 5842 5842 5842 5843 5843 5842 5842 5842 5842 5840 5839 5837 5836 5834 5832 5831 5830
5769 5773 5779 5782 5786 5790 5793 5797 5800 5804 5807 5810 5813 5816 5819 5821 5823 5825 5827 5828 5830 5831 5832 5832 5832 5833 5833 5833 5833 5833 5833 5834 5834 5834 5834 5833 5832 5831 5830 5828 5826 5824 5823 5821
5761 5766 5770 5773 5776 5779 5783 5787 5791 5794 5798 5801 5804 5807 5810 5812 5814 5816 5818 5820 5821 5822 5822 5823 5823 5824 5824 5824 5824 5824 5824 5825 5825 5825 5824 5824 5823 5821 5820 5819 5818 5816 5814 5812
5751 5756 5760 5763 5766 5769 5773 5777 5781 5784 5788 5791 5794 5796 5799 5802 5804 5806 5808 5810 5811 5812 5812 5813 5814 5814 5815 5815 5815 5815 5816 5816 5815 5815 5814 5813 5812 5811 5810 5809 5808 5807 5805 5803
5741 5746 5749 5753 5756 5759 5763 5766 5770 5774 5777 5780 5783 5786 5788 5791 5794 5796 5797 5799 5800 5801 5802 5803 5804 5804 5805 5805 5805 5805 5805 5805 5805 5804 5804 5802 5801 5800 5799 5799 5797 5796 5795 5793
5733 5737 5740 5744 5747 5749 5752 5756 5759 5763 5766 5769 5772 5775 5777 5780 5782 5784 5786 5787 5788 5790 5791 5792 5793 5794 5794 5794 5794 5794 5794 5794 5793 5793 5792 5791 5790 5790 5788 5788 5786 5785 5784 5783
5723 5726 5730 5734 5737 5740 5742 5745 5748 5752 5755 5758 5760 5763 5766 5768 5770 5772 5774 5775 5776 5777 5778 5779 5780 5782 5782 5782 5783 5783 5783 5782 5782 5781 5781 5780 5779 5779 5778 5777 5776 5775 5774 5772
5713 5716 5720 5724 5727 5729 5732 5735 5738 5741 5744 5746 5749 5751 5753 5756 5758 5760 5762 5763 5764 5765 5766 5767 5768 5770 5770 5770 5771 5771 5771 5770 5770 5769 5769 5769 5768 5768 5767 5766 5766 5764 5763 5761
5704 5707 5711 5714 5717 5719 5722 5724 5727 5730 5732 5735 5737 5739 5741 5744 5746 5748 5749 5750 5751 5752 5754 5755 5756 5758 5759 5759 5759 5759 5758 5758 5758 5757 5757 5757 5757 5757 5756 5755 5754 5753 5752 5750
5696 5699 5701 5704 5707 5710 5712 5714 5717 5719 5721 5723 5725 5727 5730 5732 5734 5736 5737 5738 5739 5740 5742 5743 5745 5746 5747 5747 5748 5747 5747 5747 5747 5746 5746 5746 5745 5745 5744 5743 5742 5741 5740 5738
5688 5690 5692 5695 5697 5700 5702 5704 5706 5708 5709 5712 5714 5716 5718 5720 5723 5725 5726 5727 5728 5729 5731 5732 5733 5734 5735 5736 5736 5736 5736 5736 5736 5736 5736 5735 5735 5734 5732 5731 5730 5729 5727 5726
5680 5682 5683 5686 5688 5690 5693 5694 5696 5697 5699 5701 5703 5705 5707 5710 5712 5714 5715 5717 5718 5719 5720 5721 5722 5723 5724 5725 5726 5726 5727 5727 5727 5726 5726 5725 5724 5723 5722 5720 5719 5717 5715 5714
5672 5673 5674 5676 5678 5680 5683 5684 5686 5687 5689 5691 5693 5695 5698 5700 5702 5704 5705 5707 5708 5710 5711 5711 5712 5713 5714 5715 5716 5716 5717 5717 5717 5716 5715 5715 5714 5712 5711 5709 5707 5705 5704 5702
5666 5667 5668 5669 5670 5672 5673 5675 5677 5678 5680 5682 5684 5687 5689 5691 5693 5694 5696 5698 5699 5700 5701 5701 5702 5703 5704 5705 5705 5706 5706 5707 5706 5706 5705 5704 5703 5702 5700 5698 5696 5694 5692 5691
5661 5661 5662 5663 5664 5665 5667 5668 5669 5671 5673 5675 5677 5679 5681 5683 5684 5686 5688 5689 5690 5691 5692 5693 5693 5694 5695 5696 5696 5697 5697 5697 5697 5696 5695 5693 5692 5691 5689 5687 5685 5684 5682 5680
5656 5657 5658 5659 5660 5660 5661 5662 5663 5665 5666 5668 5670 5672 5674 5675 5677 5678 5680 5682 5683 5684 5684 5685 5686 5686 5687 5688 5687 5687 5688 5688 5687 5686 5685 5684 5682 5680 5679 5677 5675 5673 5671 5669
5653 5653 5654 5655 5656 5657 5657 5658 5658 5659 5661 5662 5664 5666 5668 5669 5671 5672 5674 5674 5675 5676 5677 5678 5678 5679 5679 5680 5680 5679 5679 5678 5678 5677 5675 5674 5672 5670 5668 5666 5664 5662 5660 5658
5650 5650 5651 5652 5653 5653 5654 5654 5655 5655 5656 5658 5659 5661 5662 5664 5665 5666 5668 5668 5669 5670 5670 5671 5671 5671 5672 5672 5672 5671 5670 5669 5668 5667 5665 5663 5662 5660 5658 5656 5653 5652 5650 5647
5647 5648 5649 5650 5650 5651 5651 5651 5652 5652 5653 5654 5655 5656 5658 5659 5660 5661 5662 5663 5663 5664 5664 5664 5664 5664 5664 5664 5664 5663 5662 5661 5659 5657 5655 5654 5652 5650 5648 5646 5644 5642 5639 5638
5645 5646 5647 5648 5648 5649 5649 5650 5650 5650 5651 5651 5652 5653 5654 5655 5656 5656 5657 5657 5658 5658 5658 5658 5658 5658 5657 5657 5656 5655 5654 5652 5650 5648 5646 5645 5643 5640 5638 5636 5633 5631 5629 5627
5643 5644 5645 5646 5646 5647 5647 5647 5648 5648 5648 5649 5649 5650 5650 5651 5651 5652 5652 5652 5653 5653 5652 5652 5652 5651 5651 5650 5649 5648 5646 5644 5642 5640 5638 5636 5633 5631 5629 5627 5625 5622 5620 5618